Home > Weather > Tönisvorst > Past weeks

Flag for Germany Past Weather in Tönisvorst, North Rhine-Westphalia, Germany — Yesterday and Last 2 Weeks

Now
61 °F

Broken clouds.


Feels Like: 61 °F
Forecast: 60 / 72 °F
Wind: 7 mph from South

Location: Monchengladbach Airport

Current Time: Jun 30, 2016 at 8:49:05 AM

Latest Report: Jun 30, 2016 at 7:50 AM


Visibility: N/A

Pressure: 29.89 "Hg

Humidity: 83%

Dew Point: 55 °F

Location of TönisvorstLocation

Past Weather in Tönisvorst — Graph

°F

Tönisvorst Temperature Yesterday

Maximum temperature yesterday: 70 °F (at 3:20 PM)
Minimum temperature yesterday: 57 °F (at 7:20 AM)
Average temperature yesterday: 65 °F

High & Low Weather Summary for the Past Weeks

 TemperatureHumidityPressure
High91 °F (Jun 23, 4:50 PM)100% (Jun 18, 7:50 AM)30.27 "Hg (Jun 18, 7:50 AM)
Low54 °F (Jun 20, 7:50 AM)43% (Jun 29, 4:50 PM)29.50 "Hg (Jun 15, 7:50 AM)
Average66 °F74%29.97 "Hg
* Reported Jun 15 7:50 AM — Jun 30 7:20 AM, Tönisvorst, Weather by CustomWeather, © 2016

Note: Actual official high and low records may vary slightly from our data, if they occured in-between our weather recording intervals... More about our weather records

Advertising

Tönisvorst Weather History for the Previous 24 Hours

Scroll right to see more
 ConditionsComfort  
Time TempWeatherWind HumidityBarometerVisibility
7:20 AM
Thu, Jun 30
59 °FBroken clouds.5 mph88%29.89 "HgN/A
8:50 PM
Wed, Jun 29
66 °FClear.6 mph56%29.89 "Hg10 mi
8:20 PM66 °FClear.5 mph56%29.89 "Hg10 mi
7:50 PM68 °FClear.3 mph53%29.89 "Hg10 mi
7:20 PM68 °FClear.7 mph53%29.89 "Hg10 mi
6:50 PM68 °FClear.8 mph53%29.89 "Hg10 mi
6:20 PM70 °FClear.7 mph50%29.89 "Hg10 mi
5:50 PM70 °FClear.7 mph50%29.89 "Hg10 mi
5:20 PM68 °FClear.7 mph53%29.89 "Hg10 mi
4:50 PM70 °FPassing clouds.9 mph43%29.92 "HgN/A
4:20 PM70 °FPassing clouds.9 mph46%29.92 "HgN/A
3:50 PM70 °FPassing clouds.8 mph50%29.92 "HgN/A
3:20 PM70 °FPassing clouds.9 mph50%29.92 "HgN/A
2:50 PM68 °FPassing clouds.10 mph56%29.92 "HgN/A
2:20 PM68 °FPassing clouds.9 mph53%29.92 "HgN/A
1:50 PM68 °FScattered clouds.10 mph56%29.92 "HgN/A
1:20 PM66 °FScattered clouds.10 mph64%29.92 "HgN/A
12:50 PM66 °FScattered clouds.10 mph64%29.92 "HgN/A
12:20 PM64 °FPartly sunny.12 mph68%29.92 "HgN/A
11:50 AM64 °FPartly sunny.13 mph68%29.92 "HgN/A
11:20 AM63 °FPartly sunny.10 mph68%29.92 "HgN/A
10:50 AM61 °FPartly sunny.12 mph72%29.92 "HgN/A
10:20 AM61 °FPartly sunny.12 mph72%29.92 "HgN/A
9:50 AM61 °FPartly sunny.10 mph72%29.92 "HgN/A
9:20 AM59 °FPartly sunny.8 mph77%29.89 "HgN/A
8:50 AM59 °FBroken clouds.9 mph77%29.89 "HgN/A
8:20 AM59 °FScattered clouds.7 mph82%29.89 "HgN/A
Weather by CustomWeather, © 2016

See weather overviewHow to use our weather pages